QPF
0.01 0.01 0.01 0.00 0.00 0.00 0.00 0.00 0.00 0.00 0.00 0.00 0.00 0.00 0.00 0.00 0.00 0.00 0.00 0.00 0.00 0.00 0.00 0.00 0.00 0.00 0.00 0.00 0.00 0.00 0.00 0.01 0.01 0.00 0.00 0.00 0.00 0.00 0.00 0.00 0.00 0.00 0.00
0.01 0.00 0.00 0.00 0.00 0.00 0.00 0.00 0.00 0.00 0.00 0.00 0.00 0.00 0.00 0.00 0.00 0.00 0.00 0.00 0.00 0.00 0.00 0.00 0.00 0.00 0.00 0.00 0.00 0.00 0.00 0.01 0.01 0.01 0.00 0.00 0.01 0.01 0.01 0.00 0.00 0.00 0.00
0.00 0.00 0.01 0.00 0.00 0.00 0.00 0.00 0.00 0.00 0.00 0.00 0.00 0.00 0.00 0.00 0.00 0.00 0.00 0.00 0.00 0.00 0.00 0.00 0.00 0.00 0.00 0.00 0.01 0.01 0.01 0.00 0.01 0.01 0.00 0.01 0.01 0.01 0.01 0.00 0.00 0.00 0.00
0.01 0.01 0.01 0.01 0.01 0.01 0.01 0.00 0.00 0.00 0.00 0.00 0.00 0.00 0.00 0.00 0.00 0.00 0.00 0.00 0.00 0.00 0.00 0.00 0.00 0.00 0.00 0.01 0.01 0.01 0.01 0.01 0.01 0.01 0.00 0.00 0.01 0.01 0.01 0.00 0.00 0.01 0.00
0.00 0.01 0.00 0.00 0.01 0.02 0.02 0.01 0.01 0.00 0.00 0.00 0.00 0.00 0.00 0.00 0.00 0.00 0.00 0.00 0.00 0.00 0.00 0.00 0.00 0.00 0.00 0.00 0.00 0.00 0.01 0.01 0.01 0.01 0.01 0.00 0.00 0.01 0.01 0.01 0.01 0.01 0.01
0.00 0.00 0.00 0.00 0.01 0.01 0.01 0.01 0.01 0.01 0.00 0.00 0.00 0.00 0.00 0.00 0.00 0.00 0.00 0.00 0.00 0.00 0.00 0.00 0.00 0.00 0.00 0.00 0.00 0.00 0.00 0.01 0.01 0.02 0.01 0.01 0.01 0.01 0.02 0.01 0.01 0.01 0.01
0.00 0.00 0.00 0.01 0.01 0.01 0.01 0.01 0.01 0.01 0.01 0.01 0.01 0.00 0.00 0.00 0.00 0.00 0.00 0.00 0.00 0.00 0.00 0.00 0.00 0.00 0.00 0.00 0.00 0.00 0.00 0.00 0.00 0.01 0.01 0.01 0.01 0.02 0.03 0.02 0.02 0.03 0.02
0.01 0.01 0.01 0.01 0.01 0.01 0.01 0.01 0.01 0.01 0.01 0.01 0.01 0.00 0.00 0.00 0.00 0.00 0.00 0.00 0.00 0.00 0.00 0.00 0.00 0.00 0.00 0.01 0.01 0.01 0.00 0.01 0.00 0.01 0.01 0.01 0.02 0.03 0.04 0.03 0.03 0.03 0.02
0.01 0.01 0.01 0.01 0.01 0.01 0.00 0.01 0.01 0.01 0.01 0.01 0.01 0.01 0.01 0.01 0.01 0.00 0.00 0.00 0.00 0.00 0.01 0.01 0.00 0.00 0.00 0.00 0.00 0.01 0.01 0.01 0.00 0.00 0.00 0.01 0.00 0.01 0.01 0.02 0.02 0.02 0.02
0.01 0.01 0.01 0.01 0.01 0.01 0.01 0.01 0.01 0.01 0.01 0.01 0.01 0.01 0.01 0.01 0.01 0.00 0.00 0.00 0.00 0.01 0.01 0.01 0.01 0.00 0.00 0.00 0.00 0.01 0.01 0.01 0.02 0.01 0.01 0.00 0.00 0.00 0.00 0.00 0.02 0.03 0.03
0.02 0.01 0.01 0.02 0.02 0.01 0.01 0.01 0.01 0.01 0.01 0.01 0.01 0.01 0.01 0.01 0.01 0.01 0.00 0.00 0.01 0.01 0.01 0.01 0.01 0.01 0.01 0.00 0.00 0.00 0.00 0.01 0.01 0.02 0.02 0.02 0.02 0.01 0.01 0.01 0.02 0.02 0.03
0.02 0.02 0.02 0.02 0.02 0.02 0.02 0.01 0.02 0.02 0.02 0.02 0.02 0.01 0.01 0.01 0.01 0.01 0.01 0.01 0.01 0.01 0.01 0.00 0.01 0.01 0.00 0.00 0.00 0.00 0.00 0.00 0.00 0.00 0.01 0.01 0.01 0.01 0.01 0.02 0.02 0.03 0.03
0.02 0.01 0.01 0.01 0.01 0.01 0.01 0.01 0.02 0.02 0.02 0.02 0.03 0.03 0.02 0.02 0.02 0.01 0.01 0.01 0.01 0.01 0.00 0.00 0.00 0.00 0.00 0.00 0.00 0.00 0.00 0.00 0.00 0.00 0.01 0.01 0.01 0.02 0.02 0.02 0.02 0.02 0.02
0.01 0.01 0.01 0.01 0.01 0.01 0.01 0.02 0.02 0.02 0.02 0.03 0.03 0.02 0.02 0.02 0.02 0.02 0.02 0.02 0.01 0.01 0.00 0.00 0.00 0.00 0.00 0.00 0.00 0.00 0.00 0.00 0.00 0.01 0.01 0.01 0.02 0.03 0.02 0.02 0.02 0.02 0.02
0.01 0.01 0.01 0.01 0.01 0.01 0.02 0.02 0.02 0.03 0.03 0.03 0.03 0.03 0.02 0.02 0.01 0.01 0.01 0.01 0.01 0.01 0.01 0.01 0.00 0.00 0.00 0.00 0.00 0.01 0.01 0.01 0.01 0.01 0.01 0.02 0.02 0.02 0.03 0.03 0.03 0.03 0.03
0.01 0.01 0.02 0.02 0.02 0.02 0.02 0.02 0.02 0.02 0.01 0.01 0.01 0.01 0.01 0.00 0.00 0.00 0.00 0.00 0.00 0.00 0.01 0.01 0.01 0.02 0.02 0.01 0.02 0.02 0.03 0.02 0.02 0.03 0.02 0.02 0.02 0.03 0.03 0.03 0.03 0.03 0.03
0.03 0.03 0.02 0.02 0.02 0.01 0.02 0.02 0.02 0.02 0.01 0.01 0.01 0.00 0.00 0.00 0.00 0.00 0.00 0.00 0.00 0.00 0.01 0.01 0.01 0.02 0.03 0.02 0.02 0.03 0.03 0.03 0.04 0.04 0.04 0.03 0.03 0.02 0.03 0.03 0.03 0.03 0.03
0.03 0.03 0.02 0.02 0.01 0.01 0.01 0.01 0.01 0.01 0.01 0.01 0.01 0.01 0.01 0.00 0.00 0.00 0.00 0.00 0.00 0.01 0.01 0.01 0.01 0.02 0.03 0.03 0.03 0.03 0.03 0.03 0.04 0.04 0.04 0.03 0.03 0.02 0.03 0.03 0.03 0.04 0.05
0.01 0.02 0.02 0.02 0.02 0.02 0.02 0.01 0.01 0.01 0.01 0.01 0.01 0.01 0.01 0.00 0.00 0.00 0.00 0.01 0.01 0.02 0.02 0.02 0.02 0.02 0.03 0.03 0.03 0.03 0.03 0.03 0.04 0.05 0.04 0.04 0.03 0.03 0.03 0.04 0.05 0.05 0.05
0.02 0.02 0.02 0.02 0.01 0.01 0.01 0.01 0.01 0.01 0.01 0.01 0.01 0.01 0.01 0.01 0.01 0.01 0.01 0.02 0.02 0.03 0.03 0.03 0.03 0.03 0.03 0.03 0.03 0.03 0.04 0.04 0.05 0.05 0.05 0.05 0.05 0.04 0.04 0.04 0.05 0.07 0.07
0.02 0.02 0.01 0.00 0.00 0.00 0.00 0.00 0.00 0.00 0.01 0.00 0.00 0.00 0.01 0.01 0.01 0.01 0.02 0.02 0.02 0.03 0.03 0.04 0.04 0.04 0.04 0.05 0.05 0.05 0.05 0.06 0.06 0.07 0.07 0.06 0.06 0.06 0.05 0.05 0.05 0.06 0.07
0.01 0.00 0.00 0.00 0.00 0.00 0.00 0.00 0.00 0.00 0.00 0.00 0.01 0.01 0.01 0.01 0.01 0.02 0.02 0.03 0.04 0.05 0.05 0.05 0.05 0.05 0.05 0.05 0.05 0.06 0.06 0.06 0.07 0.08 0.08 0.08 0.07 0.07 0.06 0.06 0.06 0.07 0.07
0.00 0.00 0.00 0.00 0.00 0.00 0.00 0.00 0.00 0.00 0.00 0.01 0.01 0.01 0.01 0.02 0.02 0.03 0.04 0.05 0.06 0.07 0.08 0.08 0.07 0.07 0.06 0.05 0.05 0.05 0.06 0.05 0.06 0.07 0.08 0.08 0.08 0.07 0.07 0.08 0.08 0.07 0.08
0.00 0.00 0.00 0.00 0.00 0.00 0.00 0.00 0.00 0.00 0.00 0.01 0.01 0.01 0.02 0.02 0.03 0.03 0.05 0.07 0.07 0.07 0.08 0.09 0.09 0.08 0.07 0.07 0.06 0.05 0.05 0.05 0.05 0.05 0.05 0.06 0.07 0.08 0.09 0.10 0.10 0.10 0.11
0.00 0.00 0.00 0.00 0.00 0.00 0.00 0.00 0.00 0.00 0.00 0.00 0.00 0.01 0.02 0.03 0.04 0.05 0.06 0.07 0.08 0.08 0.07 0.07 0.07 0.07 0.06 0.06 0.06 0.05 0.05 0.04 0.03 0.03 0.03 0.04 0.05 0.07 0.08 0.10 0.11 0.11 0.13
0.00 0.00 0.00 0.00 0.00 0.00 0.00 0.00 0.00 0.01 0.01 0.01 0.01 0.02 0.02 0.03 0.04 0.05 0.05 0.05 0.05 0.06 0.06 0.07 0.07 0.07 0.06 0.06 0.06 0.06 0.04 0.03 0.02 0.02 0.03 0.03 0.04 0.06 0.07 0.09 0.10 0.12 0.13
MSLP
1014.48 1015.04 1015.60 1016.14 1016.62 1017.03 1017.38 1017.67 1017.91 1018.13 1018.34 1018.56 1018.78 1019.01 1019.22 1019.42 1019.58 1019.70 1019.77 1019.79 1019.78 1019.73 1019.66 1019.58 1019.50 1019.40 1019.30 1019.16 1019.00 1018.80 1018.55 1018.27 1017.96 1017.63 1017.31 1017.01 1016.75 1016.54 1016.39 1016.28 1016.23 1016.21 1016.21
1014.20 1014.74 1015.29 1015.82 1016.31 1016.75 1017.13 1017.47 1017.76 1018.02 1018.26 1018.49 1018.71 1018.92 1019.11 1019.27 1019.40 1019.49 1019.53 1019.53 1019.50 1019.45 1019.37 1019.29 1019.21 1019.11 1019.00 1018.87 1018.72 1018.52 1018.30 1018.04 1017.75 1017.44 1017.14 1016.85 1016.58 1016.35 1016.16 1016.01 1015.90 1015.82 1015.77
1013.85 1014.38 1014.92 1015.44 1015.95 1016.41 1016.83 1017.21 1017.55 1017.85 1018.12 1018.37 1018.59 1018.78 1018.94 1019.07 1019.17 1019.22 1019.24 1019.22 1019.18 1019.12 1019.05 1018.97 1018.88 1018.79 1018.68 1018.56 1018.41 1018.23 1018.02 1017.79 1017.52 1017.25 1016.96 1016.68 1016.41 1016.15 1015.93 1015.72 1015.55 1015.40 1015.29
1013.41 1013.94 1014.47 1015.00 1015.51 1016.00 1016.46 1016.88 1017.25 1017.59 1017.89 1018.15 1018.37 1018.55 1018.69 1018.80 1018.86 1018.89 1018.89 1018.86 1018.81 1018.74 1018.67 1018.60 1018.51 1018.42 1018.33 1018.21 1018.08 1017.92 1017.74 1017.53 1017.30 1017.05 1016.79 1016.52 1016.24 1015.98 1015.72 1015.47 1015.24 1015.02 1014.83
1012.88 1013.41 1013.94 1014.48 1015.00 1015.50 1015.98 1016.43 1016.84 1017.20 1017.52 1017.80 1018.02 1018.20 1018.32 1018.41 1018.46 1018.47 1018.46 1018.42 1018.37 1018.31 1018.24 1018.17 1018.10 1018.02 1017.93 1017.83 1017.72 1017.58 1017.43 1017.25 1017.06 1016.84 1016.61 1016.36 1016.09 1015.82 1015.54 1015.26 1014.98 1014.70 1014.44
1012.27 1012.81 1013.34 1013.88 1014.40 1014.91 1015.40 1015.86 1016.29 1016.67 1017.00 1017.29 1017.52 1017.70 1017.82 1017.91 1017.95 1017.96 1017.94 1017.91 1017.86 1017.81 1017.74 1017.68 1017.62 1017.55 1017.47 1017.39 1017.29 1017.18 1017.06 1016.92 1016.76 1016.58 1016.38 1016.16 1015.91 1015.65 1015.37 1015.07 1014.77 1014.45 1014.14
1011.64 1012.18 1012.71 1013.23 1013.74 1014.25 1014.73 1015.20 1015.62 1016.02 1016.36 1016.65 1016.89 1017.08 1017.21 1017.30 1017.35 1017.36 1017.35 1017.32 1017.28 1017.23 1017.18 1017.12 1017.06 1016.99 1016.93 1016.86 1016.78 1016.70 1016.60 1016.49 1016.36 1016.22 1016.05 1015.86 1015.64 1015.40 1015.14 1014.85 1014.54 1014.22 1013.88
1011.07 1011.58 1012.09 1012.59 1013.09 1013.57 1014.04 1014.48 1014.91 1015.29 1015.64 1015.94 1016.19 1016.39 1016.54 1016.64 1016.70 1016.72 1016.72 1016.69 1016.65 1016.60 1016.54 1016.48 1016.42 1016.36 1016.29 1016.23 1016.16 1016.09 1016.01 1015.93 1015.82 1015.71 1015.57 1015.41 1015.22 1015.02 1014.78 1014.52 1014.24 1013.94 1013.62
1010.62 1011.10 1011.58 1012.04 1012.50 1012.95 1013.38 1013.81 1014.21 1014.59 1014.93 1015.24 1015.50 1015.71 1015.87 1015.98 1016.05 1016.08 1016.08 1016.05 1016.00 1015.94 1015.86 1015.79 1015.71 1015.64 1015.57 1015.50 1015.44 1015.38 1015.31 1015.23 1015.14 1015.04 1014.92 1014.78 1014.62 1014.45 1014.26 1014.04 1013.81 1013.56 1013.28
1010.35 1010.79 1011.22 1011.64 1012.04 1012.45 1012.84 1013.23 1013.61 1013.97 1014.31 1014.61 1014.87 1015.09 1015.26 1015.38 1015.45 1015.48 1015.46 1015.42 1015.34 1015.25 1015.16 1015.05 1014.95 1014.86 1014.78 1014.70 1014.64 1014.57 1014.50 1014.43 1014.34 1014.24 1014.13 1014.00 1013.86 1013.71 1013.55 1013.39 1013.22 1013.03 1012.82
1010.30 1010.68 1011.05 1011.41 1011.76 1012.11 1012.47 1012.82 1013.16 1013.50 1013.82 1014.11 1014.37 1014.59 1014.75 1014.87 1014.93 1014.93 1014.89 1014.81 1014.70 1014.57 1014.43 1014.29 1014.16 1014.05 1013.95 1013.86 1013.78 1013.71 1013.64 1013.56 1013.47 1013.36 1013.24 1013.10 1012.97 1012.84 1012.71 1012.59 1012.47 1012.36 1012.23
1010.45 1010.76 1011.07 1011.37 1011.66 1011.96 1012.26 1012.57 1012.88 1013.18 1013.48 1013.75 1014.00 1014.19 1014.34 1014.43 1014.46 1014.44 1014.35 1014.23 1014.07 1013.89 1013.70 1013.52 1013.36 1013.21 1013.09 1013.00 1012.92 1012.84 1012.76 1012.68 1012.57 1012.45 1012.31 1012.17 1012.03 1011.90 1011.79 1011.70 1011.63 1011.57 1011.52
1010.75 1010.99 1011.23 1011.47 1011.71 1011.95 1012.20 1012.46 1012.73 1013.00 1013.26 1013.50 1013.71 1013.88 1013.99 1014.04 1014.03 1013.95 1013.82 1013.64 1013.42 1013.18 1012.95 1012.73 1012.53 1012.36 1012.23 1012.13 1012.04 1011.97 1011.89 1011.80 1011.69 1011.56 1011.41 1011.25 1011.10 1010.96 1010.85 1010.78 1010.74 1010.73 1010.73
1011.14 1011.32 1011.50 1011.68 1011.86 1012.04 1012.24 1012.45 1012.67 1012.90 1013.11 1013.31 1013.47 1013.59 1013.65 1013.65 1013.58 1013.44 1013.25 1013.00 1012.73 1012.44 1012.16 1011.89 1011.67 1011.48 1011.34 1011.24 1011.17 1011.10 1011.04 1010.95 1010.84 1010.71 1010.55 1010.38 1010.21 1010.06 1009.95 1009.88 1009.86 1009.87 1009.90
1011.55 1011.67 1011.79 1011.91 1012.04 1012.17 1012.32 1012.48 1012.64 1012.81 1012.96 1013.10 1013.20 1013.26 1013.26 1013.20 1013.06 1012.86 1012.61 1012.30 1011.97 1011.63 1011.31 1011.01 1010.76 1010.57 1010.42 1010.32 1010.26 1010.21 1010.16 1010.10 1010.00 1009.88 1009.73 1009.56 1009.39 1009.23 1009.11 1009.04 1009.02 1009.03 1009.08
1011.93 1012.00 1012.07 1012.13 1012.20 1012.28 1012.37 1012.47 1012.58 1012.68 1012.77 1012.85 1012.88 1012.87 1012.80 1012.67 1012.47 1012.21 1011.89 1011.53 1011.15 1010.77 1010.41 1010.08 1009.81 1009.60 1009.45 1009.36 1009.30 1009.27 1009.24 1009.20 1009.13 1009.03 1008.90 1008.75 1008.59 1008.44 1008.33 1008.25 1008.22 1008.23 1008.28
1012.23 1012.25 1012.27 1012.29 1012.31 1012.34 1012.37 1012.41 1012.46 1012.49 1012.52 1012.52 1012.48 1012.40 1012.27 1012.07 1011.82 1011.50 1011.13 1010.73 1010.30 1009.88 1009.48 1009.12 1008.83 1008.60 1008.43 1008.34 1008.29 1008.27 1008.26 1008.24 1008.20 1008.14 1008.04 1007.92 1007.79 1007.66 1007.56 1007.49 1007.46 1007.47 1007.50
1012.43 1012.41 1012.38 1012.35 1012.33 1012.30 1012.29 1012.27 1012.26 1012.23 1012.19 1012.13 1012.03 1011.89 1011.70 1011.45 1011.14 1010.78 1010.37 1009.93 1009.47 1009.01 1008.58 1008.19 1007.86 1007.60 1007.41 1007.29 1007.23 1007.21 1007.21 1007.22 1007.21 1007.18 1007.13 1007.05 1006.96 1006.88 1006.80 1006.75 1006.72 1006.72 1006.74
1012.51 1012.45 1012.38 1012.31 1012.24 1012.17 1012.11 1012.04 1011.97 1011.90 1011.81 1011.69 1011.55 1011.36 1011.13 1010.84 1010.50 1010.11 1009.67 1009.20 1008.71 1008.22 1007.76 1007.33 1006.96 1006.66 1006.44 1006.29 1006.20 1006.16 1006.16 1006.18 1006.20 1006.20 1006.19 1006.17 1006.13 1006.08 1006.04 1006.01 1005.99 1005.99 1005.99
1012.45 1012.35 1012.24 1012.13 1012.02 1011.92 1011.81 1011.71 1011.61 1011.49 1011.37 1011.22 1011.05 1010.84 1010.58 1010.28 1009.93 1009.53 1009.08 1008.59 1008.09 1007.58 1007.08 1006.61 1006.20 1005.86 1005.58 1005.39 1005.26 1005.20 1005.18 1005.20 1005.23 1005.27 1005.29 1005.31 1005.32 1005.31 1005.30 1005.29 1005.29 1005.28 1005.27
1012.23 1012.09 1011.94 1011.80 1011.65 1011.52 1011.39 1011.26 1011.13 1011.01 1010.87 1010.72 1010.54 1010.33 1010.09 1009.79 1009.45 1009.06 1008.61 1008.13 1007.62 1007.09 1006.57 1006.08 1005.62 1005.23 1004.91 1004.67 1004.50 1004.41 1004.37 1004.37 1004.41 1004.46 1004.51 1004.55 1004.59 1004.61 1004.63 1004.63 1004.62 1004.60 1004.57
1011.83 1011.65 1011.47 1011.29 1011.12 1010.96 1010.81 1010.68 1010.55 1010.43 1010.30 1010.17 1010.02 1009.84 1009.62 1009.36 1009.05 1008.68 1008.26 1007.79 1007.29 1006.76 1006.23 1005.72 1005.24 1004.81 1004.46 1004.17 1003.97 1003.84 1003.78 1003.77 1003.79 1003.84 1003.90 1003.96 1004.01 1004.04 1004.05 1004.04 1004.02 1003.97 1003.91
1011.25 1011.03 1010.82 1010.61 1010.41 1010.24 1010.08 1009.95 1009.84 1009.74 1009.65 1009.56 1009.45 1009.32 1009.16 1008.95 1008.69 1008.37 1007.98 1007.55 1007.07 1006.55 1006.03 1005.51 1005.03 1004.58 1004.21 1003.90 1003.67 1003.52 1003.44 1003.41 1003.43 1003.46 1003.51 1003.56 1003.59 1003.60 1003.58 1003.54 1003.47 1003.39 1003.28
1010.54 1010.28 1010.03 1009.79 1009.57 1009.39 1009.23 1009.11 1009.03 1008.97 1008.92 1008.89 1008.84 1008.78 1008.68 1008.53 1008.33 1008.06 1007.73 1007.33 1006.88 1006.40 1005.90 1005.39 1004.92 1004.48 1004.10 1003.80 1003.57 1003.41 1003.31 1003.27 1003.27 1003.29 1003.31 1003.32 1003.30 1003.26 1003.19 1003.09 1002.96 1002.81 1002.65
1009.76 1009.46 1009.18 1008.91 1008.67 1008.48 1008.33 1008.23 1008.17 1008.15 1008.16 1008.19 1008.21 1008.21 1008.17 1008.09 1007.94 1007.73 1007.45 1007.09 1006.68 1006.23 1005.76 1005.29 1004.84 1004.43 1004.07 1003.78 1003.56 1003.41 1003.32 1003.26 1003.24 1003.23 1003.20 1003.16 1003.09 1002.97 1002.82 1002.64 1002.43 1002.21 1001.97
1009.01 1008.68 1008.36 1008.07 1007.81 1007.61 1007.47 1007.38 1007.36 1007.38 1007.44 1007.51 1007.59 1007.65 1007.68 1007.65 1007.55 1007.38 1007.13 1006.81 1006.44 1006.02 1005.58 1005.14 1004.73 1004.35 1004.02 1003.77 1003.57 1003.43 1003.34 1003.28 1003.23 1003.18 1003.11 1003.00 1002.84 1002.65 1002.41 1002.13 1001.83 1001.52 1001.22
Thickness
5737 5734 5732 5729 5727 5724 5722 5720 5717 5714 5711 5708 5705 5703 5700 5697 5694 5691 5690 5686 5683 5681 5678 5675 5672 5669 5669 5668 5666 5664 5661 5659 5655 5658 5660 5660 5656 5654 5655 5656 5657 5659 5663
5739 5735 5732 5729 5726 5723 5721 5719 5715 5712 5709 5706 5703 5700 5698 5695 5692 5688 5685 5683 5680 5677 5675 5672 5669 5667 5663 5661 5660 5658 5656 5653 5650 5649 5651 5652 5650 5649 5648 5648 5651 5655 5656
5741 5736 5732 5729 5725 5722 5720 5717 5713 5710 5707 5704 5700 5697 5695 5692 5689 5686 5683 5680 5678 5675 5672 5668 5665 5662 5658 5658 5653 5653 5652 5651 5647 5645 5646 5646 5645 5645 5643 5644 5646 5646 5648
5741 5736 5732 5728 5725 5722 5719 5715 5711 5708 5704 5701 5698 5695 5692 5689 5687 5684 5680 5677 5674 5672 5669 5665 5662 5659 5655 5652 5649 5646 5645 5643 5642 5640 5640 5641 5640 5640 5637 5637 5640 5643 5643
5741 5736 5732 5728 5725 5721 5717 5713 5709 5706 5703 5699 5695 5692 5689 5687 5685 5682 5677 5674 5671 5667 5665 5662 5660 5656 5652 5647 5645 5644 5641 5638 5637 5636 5635 5635 5634 5632 5631 5632 5632 5633 5636
5738 5734 5732 5727 5723 5718 5714 5711 5707 5703 5699 5696 5692 5689 5687 5686 5682 5674 5670 5669 5667 5664 5661 5659 5657 5652 5647 5641 5636 5633 5630 5629 5630 5627 5628 5627 5625 5625 5624 5622 5623 5624 5626
5735 5732 5729 5724 5719 5716 5713 5708 5704 5700 5696 5691 5688 5686 5683 5681 5675 5669 5663 5662 5662 5660 5658 5655 5654 5654 5647 5643 5637 5629 5625 5621 5618 5618 5620 5619 5619 5618 5615 5614 5614 5614 5615
5733 5729 5725 5720 5716 5712 5708 5704 5701 5697 5693 5689 5685 5683 5680 5677 5671 5665 5660 5656 5657 5657 5654 5652 5649 5646 5644 5639 5635 5632 5629 5626 5620 5613 5613 5613 5613 5610 5608 5606 5605 5607 5609
5729 5724 5721 5717 5713 5708 5703 5699 5696 5692 5688 5685 5682 5679 5675 5672 5666 5660 5653 5654 5655 5654 5652 5650 5647 5643 5639 5631 5626 5624 5623 5622 5619 5615 5611 5608 5605 5601 5598 5597 5599 5601 5605
5723 5719 5716 5712 5707 5702 5698 5694 5691 5686 5683 5680 5678 5675 5671 5668 5663 5655 5647 5649 5651 5651 5650 5647 5642 5638 5634 5626 5621 5620 5618 5617 5615 5614 5607 5603 5600 5598 5594 5590 5593 5595 5599
5716 5712 5708 5704 5699 5695 5691 5687 5683 5679 5676 5672 5670 5668 5665 5662 5658 5651 5644 5642 5644 5644 5645 5644 5644 5637 5628 5620 5614 5614 5613 5610 5608 5606 5605 5604 5602 5600 5597 5594 5591 5590 5592
5706 5702 5697 5694 5692 5688 5682 5678 5674 5670 5666 5663 5661 5660 5659 5657 5652 5648 5641 5635 5633 5633 5635 5637 5637 5629 5621 5614 5609 5607 5603 5597 5599 5600 5601 5601 5600 5599 5598 5595 5592 5589 5587
5692 5689 5686 5684 5681 5678 5674 5670 5666 5662 5660 5658 5656 5654 5652 5651 5647 5640 5635 5630 5625 5622 5627 5626 5622 5616 5611 5608 5604 5600 5595 5594 5595 5596 5597 5598 5598 5596 5593 5589 5586 5584 5581
5679 5676 5674 5671 5670 5666 5663 5662 5658 5656 5652 5649 5646 5644 5642 5640 5637 5634 5630 5626 5620 5617 5617 5617 5611 5607 5604 5602 5601 5597 5594 5595 5595 5594 5594 5594 5592 5590 5586 5584 5582 5580 5579
5667 5665 5662 5661 5659 5654 5652 5648 5646 5643 5639 5634 5633 5631 5629 5627 5624 5615 5610 5612 5610 5608 5603 5604 5607 5607 5606 5604 5603 5601 5598 5595 5591 5589 5588 5587 5585 5583 5582 5579 5576 5574 5574
5655 5654 5653 5651 5647 5645 5641 5638 5632 5629 5624 5619 5615 5612 5613 5609 5605 5601 5597 5594 5591 5587 5586 5595 5598 5599 5599 5598 5597 5596 5592 5589 5587 5584 5582 5580 5578 5577 5576 5574 5571 5569 5569
5643 5641 5641 5639 5636 5633 5629 5626 5623 5619 5613 5609 5605 5600 5596 5594 5591 5588 5585 5582 5579 5575 5578 5586 5589 5590 5590 5589 5589 5588 5586 5584 5581 5578 5576 5573 5572 5570 5569 5567 5565 5564 5564
5633 5629 5627 5626 5623 5621 5618 5615 5612 5609 5606 5604 5598 5591 5587 5582 5579 5576 5572 5569 5575 5574 5575 5577 5578 5579 5578 5577 5578 5578 5577 5576 5573 5571 5569 5568 5566 5564 5563 5562 5561 5560 5560
5622 5620 5615 5613 5611 5609 5605 5602 5600 5596 5592 5590 5588 5584 5577 5573 5568 5565 5560 5562 5566 5567 5567 5566 5565 5566 5566 5566 5566 5566 5566 5566 5566 5564 5563 5562 5561 5560 5559 5558 5558 5556 5554
5609 5602 5599 5599 5598 5596 5593 5589 5586 5581 5578 5575 5572 5570 5567 5562 5560 5558 5555 5553 5553 5553 5553 5552 5552 5553 5553 5554 5554 5555 5556 5557 5558 5558 5557 5557 5556 5556 5556 5555 5555 5555 5555
5599 5595 5587 5587 5587 5583 5579 5575 5571 5567 5564 5562 5558 5555 5545 5544 5545 5545 5543 5542 5542 5542 5541 5541 5541 5541 5542 5542 5544 5546 5547 5549 5551 5552 5552 5552 5552 5552 5552 5552 5553 5553 5553
5586 5584 5581 5577 5574 5569 5564 5560 5557 5554 5551 5548 5545 5541 5535 5532 5532 5531 5530 5530 5530 5530 5530 5530 5531 5532 5532 5533 5535 5537 5539 5541 5544 5545 5546 5546 5547 5547 5548 5549 5549 5550 5550
5572 5570 5567 5563 5558 5552 5549 5547 5543 5539 5536 5532 5529 5526 5523 5520 5518 5517 5517 5517 5517 5518 5519 5520 5521 5523 5524 5526 5528 5531 5533 5535 5537 5538 5539 5540 5542 5543 5544 5545 5546 5548 5548
5559 5556 5552 5548 5544 5541 5537 5533 5529 5525 5522 5518 5515 5513 5511 5509 5507 5506 5505 5505 5506 5508 5509 5510 5511 5514 5517 5519 5522 5526 5528 5528 5529 5531 5532 5534 5536 5538 5540 5542 5544 5546 5546
5546 5542 5538 5534 5531 5527 5524 5520 5516 5513 5509 5506 5503 5501 5500 5498 5497 5496 5496 5495 5496 5497 5500 5501 5504 5507 5510 5514 5517 5520 5519 5519 5520 5522 5526 5528 5531 5534 5536 5539 5541 5543 5545
5532 5529 5525 5521 5518 5514 5511 5507 5504 5501 5498 5495 5493 5491 5490 5489 5488 5488 5488 5487 5488 5490 5492 5495 5498 5502 5506 5510 5512 5513 5512 5513 5514 5515 5517 5522 5527 5532 5535 5537 5540 5542 5544